COSMOS 2251 DEB, 34273

Orbit data source: Space-Track

COSMOS 2251 DEB, 34273 is space debris in LEO originally from a launch on Wed, 16 Jun 1993 UTC launched from the Plesetsk Missile And Space Complex (PKMTR). The debris from Iridium 33, an American commercial communications satellite, has been tracked extensively since its accidental collision with the defunct Russian satellite Cosmos 2251 in 2009. This event, occurring at high speed in low Earth orbit (LEO), generated thousands of pieces of space debris, significantly increasing the risk of further collisions. The Iridium 33 debris cloud has impacted space traffic management and orbital debris mitigation strategies, making it a subject of ongoing study in space situational awareness.

Loading next visibility...
Identifier
34273, 1993-036LT
Orbit
LEO
Country
Flag of CISCIS
Related business
Manufacturer
Unknown
Mission
Spacecraft
Bus & Motor
Unknown
Mass
Unknown
Launch date (UTC)
1993-06-16 (33 years ago)
Launch vehicle
Unknown
Launch site
Plesetsk Missile And Space Complex (PKMTR)
Object type
Payload
Rocket body
Debris
Shape & HBR
Unknown shape, 0.1 m
Radar Cross Section
Medium (>0.1 m² and <1 m²)

Expand to show TLE details & history
Last TLE update: 12 hours ago

TLE from 12 hours ago
0 COSMOS 2251 DEB
1 34273U 93036LT  26263.42165994  .00001986  00000-0  39060-3 0  9994
2 34273  74.0324 267.8195 0016507 309.0844 178.8158 14.63241961927391
Epoch: 2026-09-20T10:07Z
TLE epoch observation values (Epoch: 2026-09-20T10:07:11.418Z)
Latitude
49.44879°
Longitude
-82.72184°
Altitude
701.872 km
Speed
7.504 km/s
True Right ascension
04h 33m 34s
True Declination
49° 16' 39"
Sunlit
Object was in daylight at epoch
Visualization orbit readout
Latitude
Unknown
Longitude
Unknown
Altitude
Unknown
Speed
Unknown
Apparent Right ascension
Unknown
Apparent Declination
Unknown
Sunlit
N/A
Visualization observer readout
Local Sidereal Time
15:01:00
Azimuth
Unknown
Elevation
Unknown
Doppler factor
Unknown
Orbital elements
Apogee altitude
691.971 km
Perigee altitude
668.668 km
Semi-major axis
7,058.457 km
Eccentricity
0.00165
Inclination
74.0324°
RAAN
267.8195°
Arg. of periapsis
309.0844°
True anomaly
178.8197°
Mean anomaly
178.8158°
Eccentric anomaly
178.81775°
Mean motion
3.65998 °/min
Orbital period
98.36 mins
BSTAR
0.0003906

Documentation

Showing up to 5 results
|